Regional Weather Roundup
Issued by NWS

Home | Current Version | Previous Version | Graphics & Text | Print | Product List | Glossary On
Versions: 1 2 3 4 5 6 7 8 9 10 11 12 13 14 15 16 17 18 19 20 21 22 23 24 25 26 27 28 29 30 31 32 33 34 35 36 37 38 39 40 41 42 43 44 45 46 47 48 49 50
000
ASUS43 KLMK 210610
RWRKY
KENTUCKY REGIONAL WEATHER ROUNDUP
NATIONAL WEATHER SERVICE LOUISVILLE KY
100 AM EST WED FEB 21 2018

NOTE "FAIR" INDICATES FEW OR NO CLOUDS BELOW 12,000 FEET
WITH NO SIGNIFICANT WEATHER AND/OR OBSTRUCTIONS TO VISIBILITY.

KYZ001>023-026-027-061>063-070>075-210700-
WESTERN AND SOUTH CENTRAL KENTUCKY

CITY           SKY/WX    TMP DP  RH WIND       PRES   REMARKS
PADUCAH          N/A     73  60  63 S15G31    30.04R
HENDERSON      FAIR      71  60  68 S18G25    30.04R
OWENSBORO      FAIR      69  61  75 S17       30.06S
HOPKINSVILLE   FAIR      72  60  64 S15G23    30.11S
BOWLING GREEN  FAIR      72  62  71 S21G31    30.14F
GLASGOW        FAIR      69  59  70 S15       30.17S
$$

KYZ024-025-028>034-038-045-046-053-210700-
NORTH CENTRAL KENTUCKY

CITY           SKY/WX    TMP DP  RH WIND       PRES   REMARKS
LOUISVILLE/SDF MOCLDY    71  59  65 S21G32    30.09F
LOUISVILLE/LOU FAIR      71  61  70 S16G30    30.10F
FORT KNOX      FAIR      67  59  73 S17       30.11F
$$

KYZ035>037-039>044-047>052-055>060-089>105-210700-
NORTHEAST KENTUCKY

CITY           SKY/WX    TMP DP  RH WIND       PRES   REMARKS
LEXINGTON      FAIR      68  57  68 S21G32    30.17F
COVINGTON      FAIR      68  59  73 S17G28    30.11F
FRANKFORT      FAIR      67  56  67 S13       30.14F
$$

KYZ054-064>069-076>088-106>120-210700-
SOUTHEAST KENTUCKY

CITY           SKY/WX    TMP DP  RH WIND       PRES   REMARKS
JACKSON        CLOUDY    68  52  56 VRB3      30.26S
LONDON         FAIR      68  56  65 S10       30.26S
SOMERSET       FAIR      68  55  64 MISG      30.25S
MIDDLESBORO    CLOUDY    63  55  76 S3        30.32R
MONTICELLO     NOT AVBL
$$





USA.gov is the U.S. government's official web portal to all federal, state and local government web resources and services.